Muskogee, OK

11:16 PM CDT on April 29, 2017 (GMT -0500)
Davis

Weather History for KMKO - April, 2013

Change the Weather History Date:

Saturday, April 13, 2013

  Actual Average Record
Temperature  
Mean Temperature 58 °F -  
Max Temperature 70 °F 69 °F 90 °F (2006)
Min Temperature 48 °F 46 °F 27 °F (1997)
Degree Days  
Heating Degree Days 6    
Growing Degree Days 8 (Base 50)    
Moisture  
Dew Point 44 °F    
Average Humidity 64    
Maximum Humidity 83    
Minimum Humidity 45    
Precipitation  
Precipitation 0.02 in - - ()
Sea Level Pressure  
Sea Level Pressure 29.94 in    
Wind  
Wind Speed 8 mph (SE)    
Max Wind Speed 20 mph    
Max Gust Speed 23 mph    
Visibility 10 miles    
Events Rain    
Averages and records for this station are not official NWS values.
T = Trace of Precipitation, MM = Missing Value Source: NWS Daily Summary

Daily Weather History Graph

Daily Weather History Graph

Search for Another Location

Airport or City:

Trip Planner

Search our weather history database for the weather conditions in past years. The results will help you decide how hot, cold, wet, or windy it might be!

Date:

Astronomy

Apr. 13, 2013 Rise Set
Actual Time 6:51 AM CDT 7:53 PM CDT
Civil Twilight 6:24 AM CDT 8:19 PM CDT
Nautical Twilight 5:53 AM CDT 8:50 PM CDT
Astronomical Twilight 5:21 AM CDT 9:22 PM CDT
Moon 8:48 AM CDT (4/13) 11:12 PM CDT (4/13)
Length of Visible Light 13h 54m
Length of Day
13h 02m
Waxing Crescent, 10% of the Moon is Illuminated
Apr 13
Waxing Crescent
Apr 18
First Quarter
Apr 25
Full
May 2
Last Quarter
May 9
New

Hourly Weather History & Observations

Time (CDT) Temp. Dew Point Humidity Pressure Visibility Wind Dir Wind Speed Gust Speed Precip Events Conditions
12:53 AM 51.1 °F 37.0 °F 59% 30.02 in 10.0 mi ENE 5.8 mph - N/A   Clear
1:53 AM 48.9 °F 39.0 °F 69% 30.04 in 10.0 mi North 6.9 mph - N/A   Partly Cloudy
2:53 AM 50.0 °F 39.0 °F 66% 30.04 in 10.0 mi North 8.1 mph - N/A   Overcast
3:53 AM 48.9 °F 43.0 °F 80% 30.05 in 10.0 mi NE 4.6 mph - 0.00 in Rain Light Rain
4:53 AM 48.9 °F 41.0 °F 74% 30.04 in 10.0 mi North 3.5 mph - 0.00 in   Overcast
5:53 AM 48.9 °F 43.0 °F 80% 30.05 in 10.0 mi WNW 4.6 mph - 0.00 in   Overcast
6:53 AM 48.9 °F 43.0 °F 80% 30.06 in 10.0 mi Calm Calm - 0.00 in   Mostly Cloudy
7:53 AM 48.9 °F 44.1 °F 83% 30.08 in 10.0 mi SSW 3.5 mph - 0.00 in Rain Light Rain
8:53 AM 50.0 °F 45.0 °F 83% 30.07 in 10.0 mi SE 6.9 mph - 0.02 in   Overcast
9:53 AM 55.0 °F 42.1 °F 62% 30.06 in 10.0 mi SE 9.2 mph - 0.00 in   Mostly Cloudy
10:53 AM 55.9 °F 42.1 °F 60% 30.06 in 10.0 mi SE 10.4 mph - N/A   Overcast
11:53 AM 57.9 °F 43.0 °F 58% 30.02 in 10.0 mi SE 10.4 mph - 0.00 in   Overcast
12:53 PM 60.1 °F 43.0 °F 53% 30.01 in 10.0 mi SE 9.2 mph - 0.00 in   Mostly Cloudy
1:53 PM 64.9 °F 44.1 °F 47% 29.95 in 10.0 mi ESE 12.7 mph - 0.00 in   Mostly Cloudy
2:53 PM 66.0 °F 45.0 °F 47% 29.91 in 10.0 mi SE 18.4 mph 23.0 mph N/A   Clear
3:53 PM 68.0 °F 46.0 °F 45% 29.85 in 10.0 mi SE 19.6 mph - N/A   Clear
4:53 PM 69.1 °F 46.9 °F 45% 29.82 in 10.0 mi SE 19.6 mph 23.0 mph N/A   Clear
5:53 PM 69.1 °F 46.9 °F 45% 29.81 in 10.0 mi SE 13.8 mph - N/A   Clear
6:53 PM 66.9 °F 48.9 °F 52% 29.79 in 10.0 mi SE 11.5 mph - N/A   Clear
7:53 PM 64.9 °F 48.9 °F 56% 29.77 in 10.0 mi SSE 12.7 mph - N/A   Clear
8:53 PM 60.1 °F 48.9 °F 67% 29.79 in 10.0 mi SSE 5.8 mph - N/A   Clear
9:53 PM 59.0 °F 48.9 °F 69% 29.79 in 10.0 mi SSE 8.1 mph - N/A   Clear
10:53 PM 57.9 °F 48.9 °F 72% 29.79 in 10.0 mi SSE 5.8 mph - N/A   Clear
11:53 PM 54.0 °F 48.0 °F 80% 29.78 in 10.0 mi SSE 4.6 mph - N/A   Clear